sat.trackr.live / text

‹ back to catalog

COSMOS 2558

NORAD 53323 · 2022-089A

PAYLOAD ACTIVE UNKNOWN

§ Identity

Operator
Country
CIS
Launch date
2022-08-01
Launch site
PLMSC
Launch vehicle
Mass (kg)
RCS (m²)

External: N2YO · Heavens-Above · Gunter

§ Orbital elements

Epoch: 2026-09-12T01:46:40.185408Z

Period
87.66 min
Inclination
97.2053°
Eccentricity
0.0014198
Mean motion
16.42755340 rev/d
Perigee alt
149.2 km
Apogee alt
167.8 km
Semi-major
6,536.6 km
B*
3.4229e-4
RAAN
4.5867°
Arg perigee
269.3733°
Mean anomaly
90.5942°
Rev number
23,163

§ Raw data

COSMOS 25581 53323U 22089A   26255.07407622  .09214690  24429-5  34229-3 0  99952 53323  97.2053   4.5867 0014198 269.3733  90.5942 16.42755340231631

JSON: /api/v1/satellites/53323 · /tle

For live sub-satellite position, see the globe view (requires WebGL).

§ Visibility from observer

Set your observer location to see the next 7 days of passes ≥ 10°. The values pass through the URL so the page stays shareable.

No JS? Fill the form by hand. The geolocation button needs JavaScript.

§ Radio — SatNOGS DB

ModeDescriptionDownlinkUplink
FM S-band telemetry 2.284 GHz
BPSK S-band telemetry 2.266 GHz

2 transmitters · refreshed weekly from db.satnogs.org